Regional Weather Roundup
Issued by NWS

Home | Current Version | Previous Version | Graphics & Text | Print | Product List | Glossary On
Versions: 1 2 3 4 5 6 7 8 9 10 11 12 13 14 15 16 17 18 19 20 21 22 23 24 25 26 27 28 29 30 31 32 33 34 35 36 37 38 39 40 41 42 43 44 45 46 47 48 49 50
407
ASUS43 KDTX 211210
RWRMI
MICHIGAN HOURLY REGIONAL WEATHER ROUNDUP
NATIONAL WEATHER SERVICE DETROIT/PONTIAC MI
800 AM EDT THU MAY 21 2015

NOTE: "FAIR" INDICATES FEW OR NO CLOUDS BELOW 12,000 FEET WITH NO
SIGNIFICANT WEATHER AND/OR OBSTRUCTION TO VISIBILITY.

MIZ047>049-052>055-059>063-066>070-074>076-081>083-211300-
SOUTHEAST LOWER MICHIGAN

CITY           SKY/WX    TMP DP  RH WIND       PRES   REMARKS
ADRIAN         CLOUDY    48  43  82 NW3       30.05R
6HR MIN TEMP:  46; 6HR MAX TEMP:  48;

ALMA           SUNNY     46  36  68 SW8       30.02F
ANN ARBOR      CLOUDY    48  41  76 NW5       30.04R
BAD AXE        SUNNY     48  37  66 SW7       29.99F
CARO           SUNNY     48  38  69 CALM      30.00F
DETROIT CITY   CLOUDY    51  41  68 W6        30.03R
6HR MIN TEMP:  49; 6HR MAX TEMP:  51; 6HR PCP: TRACE;

DETROIT        CLOUDY    51  43  74 W7        30.04S
6HR MIN TEMP:  49; 6HR MAX TEMP:  51; 6HR PCP: TRACE;

FLINT          MOSUNNY   51  36  56 SW9       30.03F
6HR MIN TEMP:  48; 6HR MAX TEMP:  52;

GROSSE ILE     CLOUDY    50  45  81 W3        30.02S
HILLSDALE      CLOUDY    47  42  82 W5        30.05S
6HR MIN TEMP:  46; 6HR MAX TEMP:  47;

HOWELL         PTSUNNY   47  37  68 W5        30.03S
6HR MIN TEMP:  46; 6HR MAX TEMP:  50;


CITY           SKY/WX    TMP DP  RH WIND       PRES   REMARKS
JACKSON        PTSUNNY   46  41  82 W6        30.04S
6HR MIN TEMP:  44; 6HR MAX TEMP:  47;

LAMBERTVILLE   CLOUDY    50  45  81 NW3       30.05R
LANSING        MOSUNNY   46  33  60 W8        30.05S
6HR MIN TEMP:  45; 6HR MAX TEMP:  49;

LAPEER         FAIR      49  35  56 W7        30.01F
MASON          PTSUNNY   44  35  71 W6        30.04S
MONROE         CLOUDY    48  45  87 W3        30.03R
MT. CLEMENS    PTSUNNY   51  39  62 W7        30.00S
6HR MIN TEMP:  50; 6HR MAX TEMP:  51;

PONTIAC        PTSUNNY   49  35  58 W9        30.02R
6HR MIN TEMP:  48; 6HR MAX TEMP:  51;

PORT HOPE        N/A     51  36  56 SW5       29.97S
6HR MIN TEMP:  43; 6HR MAX TEMP:  51;

PORT HURON     PTSUNNY   50  41  71 W6        30.01S
TRI CITIES     SUNNY     48  35  60 SW12      30.01F
6HR MIN TEMP:  43; 6HR MAX TEMP:  50;

MIDLAND        FAIR      47  34  62 SW5       30.00S
TROY           PTSUNNY   52  37  57 W5        30.04S
SAGINAW HB     SUNNY     46  36  66 SW9       30.01S
$$
MIZ043>046-050>051-056>058-064>065-071>073-077>080-211300-
SOUTHWEST LOWER MICHIGAN

CITY           SKY/WX    TMP DP  RH WIND       PRES   REMARKS
BATTLE CREEK   CLOUDY    46  37  71 W6        30.06S
6HR MIN TEMP:  43; 6HR MAX TEMP:  46; 6HR PCP: TRACE;

BENTON HARBOR  CLOUDY    45  42  89 W8        30.09R
6HR MIN TEMP:  42; 6HR MAX TEMP:  45;

BIG RAPIDS     SUNNY     46  36  68 W9        30.01S
6HR MIN TEMP:  38; 6HR MAX TEMP:  46;

COLDWATER      CLOUDY    45  37  73 W3        30.06S
6HR MIN TEMP:  44; 6HR MAX TEMP:  46;

FREMONT        FAIR      43  39  83 W5        30.03F
HOLLAND        CLOUDY    46  40  79 W7        30.07S
6HR MIN TEMP:  43; 6HR MAX TEMP:  46;

GRAND RAPIDS   PTSUNNY   45  38  76 SW9       30.05S
6HR MIN TEMP:  42; 6HR MAX TEMP:  47;

IONIA          FAIR      46  36  68 W10       30.04S
KALAMAZOO      CLOUDY    46  37  71 W6        30.07S
6HR MIN TEMP:  44; 6HR MAX TEMP:  46; 6HR PCP: TRACE;

LUDINGTON      SUNNY     48  40  73 SW8       30.03R
6HR MIN TEMP:  43; 6HR MAX TEMP:  48;

MARSHALL       CLOUDY    46  36  69 W6        30.05S
MOUNT PLEASANT MOSUNNY   46  34  62 SW10G16   30.00S
6HR MIN TEMP:  40; 6HR MAX TEMP:  47;

MUSKEGON       MOSUNNY   47  40  76 W10       30.06R
6HR MIN TEMP:  39; 6HR MAX TEMP:  47;

SOUTH HAVEN    CLOUDY    46  42  86 W5        30.08R
$$
MIZ016>042-211300-
NORTHERN LOWER MICHIGAN

CITY           SKY/WX    TMP DP  RH WIND       PRES   REMARKS
ALPENA         SUNNY     48  34  58 SW6       29.94F
6HR MIN TEMP:  42; 6HR MAX TEMP:  48;

BEAVER ISLAND  MOSUNNY   47  37  66 W8        29.92S
6HR MIN TEMP:  37; 6HR MAX TEMP:  47;

BELLAIRE       SUNNY     46  36  68 S3        29.96F
6HR MIN TEMP:  34; 6HR MAX TEMP:  47;

CADILLAC       SUNNY     45  37  75 SW6       29.98S
CHARLEVOIX     SUNNY     47  37  69 SW10      29.96F
6HR MIN TEMP:  42; 6HR MAX TEMP:  47;

FRANKFORT      SUNNY     48  36  61 SW5       29.98S
GAYLORD        SUNNY     44  34  67 W8        29.94F
6HR MIN TEMP:  39; 6HR MAX TEMP:  44;

GRAYLING       SUNNY     44  34  65 W8        29.96S
6HR MIN TEMP:  39; 6HR MAX TEMP:  44;

HARBOR SPRINGS SUNNY     43  35  72 CALM      29.94S
HOUGHTON LAKE  MOSUNNY   46  36  68 W10       29.98S
6HR MIN TEMP:  44; 6HR MAX TEMP:  48;

MANISTEE       SUNNY     39  36  87 CALM      30.02R
OSCODA         SUNNY     47  37  66 SW7       29.96S
PELLSTON       SUNNY     49  35  58 SW5       29.92F
6HR MIN TEMP:  34; 6HR MAX TEMP:  49;

ROGERS CITY    SUNNY     48  36  61 W9        29.93S
TRAVERSE CITY  MOSUNNY   48  37  65 VRB3      29.96S
6HR MIN TEMP:  44; 6HR MAX TEMP:  48;

$$
MIZ007>008-015-211300-
EASTERN UPPER MICHIGAN

CITY           SKY/WX    TMP DP  RH WIND       PRES   REMARKS
KINROSS        SUNNY     41  39  93 SW5       29.89S
6HR MIN TEMP:  36; 6HR MAX TEMP:  41;

MACKINAC ISLAN SUNNY     45  37  76 SW8       29.91F
NEWBERRY       PTSUNNY   44  37  78 SW8       29.89S
S. S. MARIE    MOSUNNY   40  36  86 S3        29.88F
6HR MIN TEMP:  37; 6HR MAX TEMP:  42;

MUNISING         N/A     46  33  60 VRB5      29.88R
6HR MIN TEMP:  40; 6HR MAX TEMP:  47;

$$
MIZ004>006-011>014-085-211300-
CENTRAL UPPER MICHIGAN

CITY           SKY/WX    TMP DP  RH WIND       PRES   REMARKS
MANISTIQUE     MOSUNNY   47  36  65 SW6       29.89F
6HR MIN TEMP:  29; 6HR MAX TEMP:  47;

ESCANABA       SUNNY     46  32  57 W12       29.91F
6HR MIN TEMP:  39; 6HR MAX TEMP:  46;

MENOMINEE      SUNNY     46  30  53 W8        29.95S
6HR MIN TEMP:  41; 6HR MAX TEMP:  46;

SAWYER-GWINN   PTSUNNY   45  32  61 W6        29.90S
$$
MIZ001>003-009>011-084-211300-
WESTERN UPPER MICHIGAN

CITY           SKY/WX    TMP DP  RH WIND       PRES   REMARKS
IRON MOUNTAIN  CLOUDY    46  32  58 W5        29.93S
6HR MIN TEMP:  42; 6HR MAX TEMP:  48;

HOUGHTON       MOSUNNY   45  34  65 N9        29.92R
6HR MIN TEMP:  42; 6HR MAX TEMP:  53;

COPPER HARBOR    N/A     42  33  70 N8        29.93R
6HR MIN TEMP:  42; 6HR MAX TEMP:  60;

IRONWOOD       PTSUNNY   50  36  57 SW6       29.92S
6HR MIN TEMP:  48; 6HR MAX TEMP:  52;

$$

ABBREVIATIONS USED IN REMARKS
   TC - TEMPERATURE IN CELSIUS
  WCI - WIND CHILL INDEX
   HX - HEAT INDEX
  VSB - VISIBILITY




USA.gov is the U.S. government's official web portal to all federal, state and local government web resources and services.